TOURFACTS.DK  
Stats and Facts from Tour de France.

Tour de France 2019 starts in 349 days
  Riders   Stages   Teams   Summits   Yearly  


 
Search by year

After 2018 - Stage 13:
 15000 starters.
  5163 different riders.
  639 teams.
  2245 stages.
  456 restdays.
  441769.60 km.
  5677 abandonnees.


Top 3
GC
Christopher Froome86:20:55
Rigoberto Urán86:21:49
Romain Bardet86:23:15
Climb
Warren Barguil169 pt.
Primoz Roglic80 pt.
Thomas De Gendt64 pt.
Sprint
Michael Matthews359 pt.
André Greipel234 pt.
Edvald Boasson Hagen220 pt.
Youth
Simon Yates86:27:09
Louis Meintjes86:29:15
Emanuel Buchmann86:54:16
Facts from Tour de France 2013
  |   Stages.  |   Stage winners.  |   Days in yellow  |   Average speed.  |   Route.  |   Teams.  |   All riders.  |   Rookies.  |  

  |   Withdrawls.  |   GC.  |   Polka  |   Green  |   White  |   Summits. (In tour)  |   Miscellaneous.  |  

Stage 15 on July 14th. 2013
         Owning:    Christopher Froome    
Pick a stage:  1 2 3 4 5 6 7 8 9 10 11 12 13 14 15 16 17 18 19 20 21
From: Givors    To: Mont-VentouxDist:242.00 km.
Cat: 4Côte d'Eyzin-PinetBELThomas De Gendt
1 point
 
Cat: 4Côte de PrimaretteFRAPierre Rolland
1 point
 
Cat: 4Côte de Lens-LestangFRAJulien El Farès
1 point
 
Cat: 3Côte de BourdeauxFRAJérémy Roy
2 points
 
Cat: HMont VentouxKENChristopher Froome
50 points
 

Average speed for all riders in stage:  39,270 km./hr.
    Place:Name:Team:Time:Km/h:
KENChristopher FroomeGBRSky Procycling05:48:45  +  00:00:00=41,634 
2 FRAPierre RollandFRATeam Europcar05:48:45  +  00:00:00=41,634 
COLNairo QuintanaESPMovistar Team05:49:14  +  00:00:29=41,577 
ESPMikel NieveESPEuskaltel - Euskadi05:50:08  +  00:01:23=41,470 
5 ESPJoaquim RodriguezRUSTeam Katusha05:50:08  +  00:01:23=41,470 
6 CZERoman KreuzigerDNKTeam Saxo-Tinkoff05:50:25  +  00:01:40=41,436 
7 ESPAlberto ContadorDNKTeam Saxo-Tinkoff05:50:25  +  00:01:40=41,436 
8 SUIJakob FuglsangKAZAstana Pro Team05:50:28  +  00:01:43=41,430 
9 NEDBauke MollemaNLDBelkin Pro Cycling05:50:31  +  00:01:46=41,425 
10 NEDLaurens ten DamNLDBelkin Pro Cycling05:50:38  +  00:01:53=41,411 
11 FRAJean-Christophe PeraudFRAAg2r La Mondiale05:50:53  +  00:02:08=41,381 
12 BELBart De ClercqBELLotto-Belisol Team05:50:57  +  00:02:12=41,373 
13 AUSMichael RogersDNKTeam Saxo-Tinkoff05:51:11  +  00:02:26=41,346 
14 ESPAlejandro ValverdeESPMovistar Team05:51:17  +  00:02:32=41,334 
15 ENGDaniel MartinUSAGarmin Sharp05:51:21  +  00:02:36=41,326 
16 AUSRichie PorteGBRSky Procycling05:51:34  +  00:02:49=41,301 
17 ESPDaniel MorenoRUSTeam Katusha05:51:51  +  00:03:06=41,268 
18 NEDRobert GesinkNLDBelkin Pro Cycling05:51:56  +  00:03:11=41,258 
19 POLMichal KwiatkowskiBELOmega Pharma – Quick Step05:51:59  +  00:03:14=41,252 
20 FRARomain BardetFRAAg2r La Mondiale05:52:00  +  00:03:15=41,250 
21 BELMaxime MonfortLUXRadioShack Leopard05:52:16  +  00:03:31=41,219 
22 ESPIgor AntonESPEuskaltel - Euskadi05:52:52  +  00:04:07=41,149 
23 FRAJohn GadretFRAAg2r La Mondiale05:53:41  +  00:04:56=41,054 
24 BELJan BakelantsLUXRadioShack Leopard05:53:49  +  00:05:04=41,038 
25 ESPJesus  HernandezDNKTeam Saxo-Tinkoff05:54:58  +  00:06:13=40,905 
26 USAAndrew TalanskyUSAGarmin Sharp05:55:23  +  00:06:38=40,857 
27 SVKPeter VelitsBELOmega Pharma – Quick Step05:55:29  +  00:06:44=40,846 
28 FRAMaxime MederelFRASojasun05:55:29  +  00:06:44=40,846 
29 BELPhilippe GilbertUSABMC Racing Team05:57:31  +  00:08:46=40,613 
30 SUISteve MorabitoUSABMC Racing Team05:57:31  +  00:08:46=40,613 
31 AUSCadel EvansUSABMC Racing Team05:57:31  +  00:08:46=40,613 
32 ESPHaimar ZubeldiaLUXRadioShack Leopard05:57:31  +  00:08:46=40,613 
33 FRARudy MolardFRACofidis – Solutions Crédits05:57:31  +  00:08:46=40,613 
34 ESPLuis Angel MateFRACofidis – Solutions Crédits05:57:31  +  00:08:46=40,613 
35 ESPDaniel NavarroFRACofidis – Solutions Crédits05:57:31  +  00:08:46=40,613 
36 RUSEduard VorganovRUSTeam Katusha05:58:52  +  00:10:07=40,461 
37 AUSAdam HansenBELLotto-Belisol Team05:59:14  +  00:10:29=40,419 
38 GERAndréas KlödenLUXRadioShack Leopard05:59:27  +  00:10:42=40,395 
39 LUXAndy SchleckLUXRadioShack Leopard05:59:27  +  00:10:42=40,395 
40 RUSYury TrofimovRUSTeam Katusha06:00:01  +  00:11:16=40,331 
41 COLJosé SerpaITALampre-Merida06:00:46  +  00:12:01=40,248 
42 FRAThomas VoecklerFRATeam Europcar06:00:47  +  00:12:02=40,246 
43 FRABrice FeilluFRASojasun06:01:08  +  00:12:23=40,207 
44 CRCAndrey AmadorESPMovistar Team06:01:19  +  00:12:34=40,186 
45 IOMPeter KennaughGBRSky Procycling06:01:23  +  00:12:38=40,179 
46 FRAJérôme CoppelFRACofidis – Solutions Crédits06:01:51  +  00:13:06=40,127 
47 AUSSimon ClarkeAUSOrica - GreenEDGE06:02:01  +  00:13:16=40,109 
48 NORLars Petter NordhaugNLDBelkin Pro Cycling06:02:01  +  00:13:16=40,109 
49 ESPJuan José OrozESPEuskaltel - Euskadi06:02:01  +  00:13:16=40,109 
50 NEDBram TankinkNLDBelkin Pro Cycling06:02:13  +  00:13:28=40,087 
51 FRAGuillaume LevarletFRACofidis – Solutions Crédits06:02:53  +  00:14:08=40,013 
52 FRAAlexis VuillermozFRASojasun06:03:36  +  00:14:51=39,934 
53 FRASylvain ChavanelBELOmega Pharma – Quick Step06:04:14  +  00:15:29=39,865 
54 FRANicolas RocheDNKTeam Saxo-Tinkoff06:05:24  +  00:16:39=39,737 
55 FRAChristophe RiblonFRAAg2r La Mondiale06:05:32  +  00:16:47=39,723 
56 FRATony GallopinLUXRadioShack Leopard06:05:41  +  00:16:56=39,706 
57 LUXLaurent DidierLUXRadioShack Leopard06:05:41  +  00:16:56=39,706 
58 NEDJohnny HoogerlandNLDVacansoleil - DCM06:05:59  +  00:17:14=39,674 
59 NEDTom DumoulinNLDArgos–Shimano06:05:59  +  00:17:14=39,674 
60 FRAHubert DupontFRAAg2r La Mondiale06:05:59  +  00:17:14=39,674 
61 FRAAmaël MoinardUSABMC Racing Team06:05:59  +  00:17:14=39,674 
62 ESPMikel AstarlozaESPEuskaltel - Euskadi06:05:59  +  00:17:14=39,674 
63 FRACyril GautierFRATeam Europcar06:06:35  +  00:17:50=39,609 
64 FRAArthur VichotFRAFDJ.fr06:06:42  +  00:17:57=39,596 
65 FRAAnthony DelaplaceFRASojasun06:07:04  +  00:18:19=39,557 
66 BELThomas De GendtNLDVacansoleil - DCM06:07:10  +  00:18:25=39,546 
67 NEDWout PoelsNLDVacansoleil - DCM06:07:10  +  00:18:25=39,546 
68 ESPJosé Joaquin RojasESPMovistar Team06:08:05  +  00:19:20=39,448 
69 ESPRubén PlazaESPMovistar Team06:08:05  +  00:19:20=39,448 
70 PORRui CostaESPMovistar Team06:08:05  +  00:19:20=39,448 
71 NEDLieuwe WestraNLDVacansoleil - DCM06:08:05  +  00:19:20=39,448 
72 USATom DanielsonUSAGarmin Sharp06:08:05  +  00:19:20=39,448 
73 BLRKanstantin SivtsovGBRSky Procycling06:08:05  +  00:19:20=39,448 
74 ITAEnrico GasparottoKAZAstana Pro Team06:08:05  +  00:19:20=39,448 
75 ITAFrancesco GavazziKAZAstana Pro Team06:08:05  +  00:19:20=39,448 
76 UZBSergey LagutinNLDVacansoleil - DCM06:08:05  +  00:19:20=39,448 
77 ESPMarkel IrizarLUXRadioShack Leopard06:08:05  +  00:19:20=39,448 
78 FRACyril LemoineFRASojasun06:08:05  +  00:19:20=39,448 
79 GERSimon GeschkeNLDArgos–Shimano06:08:37  +  00:19:52=39,391 
80 FRAThibaut PinotFRAFDJ.fr06:08:41  +  00:19:56=39,383 
81 USABrent BookwalterUSABMC Racing Team06:08:41  +  00:19:56=39,383 
82 FRAPierrick FédrigoFRAFDJ.fr06:08:51  +  00:20:06=39,366 
83 FRAArnold JeannessonFRAFDJ.fr06:08:51  +  00:20:06=39,366 
84 FRAAlexandre GeniezFRAFDJ.fr06:09:15  +  00:20:30=39,323 
85 AUSSimon GerransAUSOrica - GreenEDGE06:11:52  +  00:23:07=39,046 
86 RSADaryl ImpeyAUSOrica - GreenEDGE06:11:52  +  00:23:07=39,046 
87 AUSStuart O'GradyAUSOrica - GreenEDGE06:11:52  +  00:23:07=39,046 
88 AUSCameron MeyerAUSOrica - GreenEDGE06:11:52  +  00:23:07=39,046 
89 MLTDavid MillarUSAGarmin Sharp06:11:52  +  00:23:07=39,046 
90 GERJohannes FröhlingerNLDArgos–Shimano06:11:52  +  00:23:07=39,046 
91 GERAndré GreipelBELLotto-Belisol Team06:13:34  +  00:24:49=38,869 
92 NEDLars BoomNLDBelkin Pro Cycling06:13:39  +  00:24:54=38,860 
93 GERMarcus BurghardtUSABMC Racing Team06:14:11  +  00:25:26=38,805 
94 ITAManuel QuinziatoUSABMC Racing Team06:15:44  +  00:26:59=38,644 
95 ITADaniele BennatiDNKTeam Saxo-Tinkoff06:15:44  +  00:26:59=38,644 
96 ITAMatteo TosattoDNKTeam Saxo-Tinkoff06:15:44  +  00:26:59=38,644 
97 FRAJérémy RoyFRAFDJ.fr06:15:58  +  00:27:13=38,620 
98 POLPrzemyslaw NiemiecITALampre-Merida06:16:21  +  00:27:36=38,581 
99 ITAManuele MoriITALampre-Merida06:16:21  +  00:27:36=38,581 
100 BLRAliaksandr KuchynskiRUSTeam Katusha06:16:21  +  00:27:36=38,581 
101 ITAFabio SabatiniITACannondale Pro Cycling06:16:21  +  00:27:36=38,581 
102 NEDKoen De KortNLDArgos–Shimano06:16:21  +  00:27:36=38,581 
103 NEDRoy CurversNLDArgos–Shimano06:16:21  +  00:27:36=38,581 
104 GERMarcel SiebergBELLotto-Belisol Team06:16:21  +  00:27:36=38,581 
105 NEDDanny van PoppelNLDVacansoleil - DCM06:16:21  +  00:27:36=38,581 
106 ESPImanol ErvitiESPMovistar Team06:16:21  +  00:27:36=38,581 
107 SLOKristjan KorenITACannondale Pro Cycling06:16:21  +  00:27:36=38,581 
108 USATejay Van GarderenUSABMC Racing Team06:16:21  +  00:27:36=38,581 
109 ITADamiano CunegoITALampre-Merida06:16:21  +  00:27:36=38,581 
110 ESPEgoitz GarciaFRACofidis – Solutions Crédits06:16:21  +  00:27:36=38,581 
111 BELFrederik WillemsBELLotto-Belisol Team06:16:21  +  00:27:36=38,581 
112 FRAChristophe Le MevelFRACofidis – Solutions Crédits06:16:21  +  00:27:36=38,581 
113 BELMaarten WynantsNLDBelkin Pro Cycling06:16:21  +  00:27:36=38,581 
114 CANRyder HesjedalUSAGarmin Sharp06:16:21  +  00:27:36=38,581 
115 CANDavid VeilleuxFRATeam Europcar06:16:21  +  00:27:36=38,581 
116 DENLars BakBELLotto-Belisol Team06:16:21  +  00:27:36=38,581 
117 GERJens VoigtLUXRadioShack Leopard06:16:21  +  00:27:36=38,581 
118 FRARomain SicardESPEuskaltel - Euskadi06:16:21  +  00:27:36=38,581 
119 ITADavide MalacarneFRATeam Europcar06:16:21  +  00:27:36=38,581 
120 KAZDmitriy MuravyevKAZAstana Pro Team06:16:21  +  00:27:36=38,581 
121 PORSergio PaulinhoDNKTeam Saxo-Tinkoff06:16:21  +  00:27:36=38,581 
122 FRASamuel DumoulinFRAAg2r La Mondiale06:16:21  +  00:27:36=38,581 
123 BELSep VanmarckeNLDBelkin Pro Cycling06:16:21  +  00:27:36=38,581 
124 FRAJérôme CousinFRATeam Europcar06:16:21  +  00:27:36=38,581 
125 GERTony MartinBELOmega Pharma – Quick Step06:16:21  +  00:27:36=38,581 
126 GERJohn DegenkolbNLDArgos–Shimano06:16:31  +  00:27:46=38,564 
127 WALGeraint ThomasGBRSky Procycling06:16:41  +  00:27:56=38,547 
128 NEDNiki TerpstraBELOmega Pharma – Quick Step06:16:50  +  00:28:05=38,532 
129 FRAYohann GèneFRATeam Europcar06:17:01  +  00:28:16=38,513 
130 SVKPeter SaganITACannondale Pro Cycling06:17:13  +  00:28:28=38,492 
131 ITAAlan MarangoniITACannondale Pro Cycling06:17:13  +  00:28:28=38,492 
132 BELKris BoeckmansNLDVacansoleil - DCM06:17:13  +  00:28:28=38,492 
133 FRASébastien MinardFRAAg2r La Mondiale06:17:13  +  00:28:28=38,492 
134 ENGIan StannardGBRSky Procycling06:17:24  +  00:28:39=38,474 
135 NEDAlbert TimmerNLDArgos–Shimano06:17:24  +  00:28:39=38,474 
136 ESPDavid LopezGBRSky Procycling06:17:41  +  00:28:56=38,445 
137 URSRein TaaramäeFRACofidis – Solutions Crédits06:17:53  +  00:29:08=38,425 
138 NEDTom LeezerNLDBelkin Pro Cycling06:18:33  +  00:29:48=38,357 
139 ITAAlessandro De MarchiITACannondale Pro Cycling06:18:33  +  00:29:48=38,357 
140 POLMaciej BodnarITACannondale Pro Cycling06:18:33  +  00:29:48=38,357 
141 ESPAlberto LosadaRUSTeam Katusha06:18:33  +  00:29:48=38,357 
142 JPNYukiya ArashiroFRATeam Europcar06:19:08  +  00:30:23=38,298 
143 NZLJack BauerUSAGarmin Sharp06:20:11  +  00:31:26=38,192 
144 FRAJulien SimonFRASojasun06:20:54  +  00:32:09=38,120 
145 AUSMatthew GossAUSOrica - GreenEDGE06:21:21  +  00:32:36=38,075 
146 NZLGregory HendersonBELLotto-Belisol Team06:21:21  +  00:32:36=38,075 
147 SUIMichael AlbasiniAUSOrica - GreenEDGE06:21:21  +  00:32:36=38,075 
148 BRAMurilo Antonio FischerFRAFDJ.fr06:21:21  +  00:32:36=38,075 
149 AUSBrett LancasterAUSOrica - GreenEDGE06:21:21  +  00:32:36=38,075 
150 IOMMark CavendishBELOmega Pharma – Quick Step06:21:21  +  00:32:36=38,075 
151 FRAJérôme PineauBELOmega Pharma – Quick Step06:21:21  +  00:32:36=38,075 
152 ARGJuan Antonio FlechaNLDVacansoleil - DCM06:21:21  +  00:32:36=38,075 
153 NEDBoy van PoppelNLDVacansoleil - DCM06:21:21  +  00:32:36=38,075 
154 URSRamunas NavardauskasUSAGarmin Sharp06:21:21  +  00:32:36=38,075 
155 BELGert SteegmansBELOmega Pharma – Quick Step06:21:21  +  00:32:36=38,075 
156 ESPRuben PerezESPEuskaltel - Euskadi06:21:21  +  00:32:36=38,075 
157 FRAJulien El FarèsFRASojasun06:21:21  +  00:32:36=38,075 
158 FRAKévin RezaFRATeam Europcar06:21:21  +  00:32:36=38,075 
159 BELJürgen RoelandtsBELLotto-Belisol Team06:21:21  +  00:32:36=38,075 
160 ESPGorka Izaguirre InsaustiESPEuskaltel - Euskadi06:21:21  +  00:32:36=38,075 
161 DENBrian VandborgITACannondale Pro Cycling06:21:21  +  00:32:36=38,075 
162 ESPJon Izaguirre InsaustiESPEuskaltel - Euskadi06:21:21  +  00:32:36=38,075 
163 NEDTom VeelersNLDArgos–Shimano06:21:21  +  00:32:36=38,075 
164 ITAMoreno MoserITACannondale Pro Cycling06:21:21  +  00:32:36=38,075 
165 GERMarcel KittelNLDArgos–Shimano06:21:21  +  00:32:36=38,075 
166 CANSvein TuftAUSOrica - GreenEDGE06:21:21  +  00:32:36=38,075 
167 KAZAlexey LutsenkoKAZAstana Pro Team06:21:21  +  00:32:36=38,075 
168 RUSPavel BruttRUSTeam Katusha06:21:21  +  00:32:36=38,075 
169 NORAlexander KristoffRUSTeam Katusha06:21:21  +  00:32:36=38,075 
170 KAZAssan BazayevKAZAstana Pro Team06:21:21  +  00:32:36=38,075 
171 ITARoberto FerrariITALampre-Merida06:21:21  +  00:32:36=38,075 
172 ITAElia FavilliITALampre-Merida06:21:21  +  00:32:36=38,075 
173 URSGatis SmukulisRUSTeam Katusha06:21:21  +  00:32:36=38,075 
174 FRABlel KadriFRAAg2r La Mondiale06:21:21  +  00:32:36=38,075 
175 ESPJonathan CastroviejoESPMovistar Team06:21:21  +  00:32:36=38,075 
176 FRAJean-Marc MarinoFRASojasun06:21:21  +  00:32:36=38,075 
177 ITADavide CimolaiITALampre-Merida06:21:21  +  00:32:36=38,075 
178 FRAWilliam BonnetFRAFDJ.fr06:21:21  +  00:32:36=38,075 
179 ITAMatteo TrentinBELOmega Pharma – Quick Step06:21:21  +  00:32:36=38,075 
180 ESPJuan LobatoESPEuskaltel - Euskadi06:21:35  +  00:32:50=38,052 
181 FRAJonathan HivertFRASojasun06:39:06  +  00:50:21=36,382 


Todays birthdays.

1889  Arthur Godart
1901  Félix Baud
1904  Fernand Fayolle
1921  Pietro Giudici
1932  Félix Le Buhotel
1932  Piet Van Den Brekel
1954  Hennie Stamsnijder
1965  Francis Moreau
1980  Andrey Kashechkin
1981  Stefan Schumacher




Visits: